This is the latest recevied weather packets stored in our database for station/object WD7OO. If no packets are shown the sender has not sent any weather packets the latest 10 day(s).
| Time | Temp. | Humidity | Pressure | Rain* | Wind** | Luminosity | Snow |
|---|---|---|---|---|---|---|---|
| 1777798691 | 3.33° C | 76% | 1015.7 hPa | 0 mm | - | 0 W/m² | - |
| 1777798388 | 3.89° C | 76% | 1015.7 hPa | 0 mm | - | 0 W/m² | - |
| 1777798085 | 3.89° C | 76% | 1015.8 hPa | 0 mm | - | 0 W/m² | - |
| 1777797783 | 3.89° C | 76% | 1015.7 hPa | 0 mm | - | 0 W/m² | - |
| 1777797480 | 3.89° C | 75% | 1015.8 hPa | 0 mm | - | 0 W/m² | - |
| 1777797177 | 3.89° C | 74% | 1015.5 hPa | 0 mm | - | 0 W/m² | - |
| 1777796874 | 3.89° C | 74% | 1015.7 hPa | 0 mm | - | 0 W/m² | - |
| 1777796571 | 3.89° C | 73% | 1015.6 hPa | 0 mm | - | 0 W/m² | - |
| 1777796266 | 4.44° C | 73% | 1015.6 hPa | 0 mm | - | 0 W/m² | - |
| 1777795963 | 4.44° C | 72% | 1015.8 hPa | 0 mm | - | 0 W/m² | - |
| 1777795658 | 4.44° C | 72% | 1015.7 hPa | 0 mm | - | 0 W/m² | - |
| 1777795356 | 4.44° C | 71% | 1015.6 hPa | 0 mm | - | 0 W/m² | - |
| 1777795052 | 5° C | 71% | 1015.8 hPa | 0 mm | - | 0 W/m² | - |
| 1777794749 | 5° C | 71% | 1015.7 hPa | 0 mm | - | 0 W/m² | - |
| 1777794445 | 5° C | 70% | 1015.9 hPa | 0 mm | - | 0 W/m² | - |
| 1777794140 | 5° C | 70% | 1015.8 hPa | 0 mm | - | 0 W/m² | - |
| 1777793837 | 5° C | 71% | 1016 hPa | 0 mm | - | 0 W/m² | - |
| 1777793535 | 5° C | 71% | 1015.9 hPa | 0 mm | - | 0 W/m² | - |
| 1777793232 | 5° C | 71% | 1015.7 hPa | 0 mm | - | 0 W/m² | - |
| 1777792929 | 4.44° C | 71% | 1015.7 hPa | 0 mm | - | 0 W/m² | - |
| 1777792626 | 4.44° C | 76% | 1016.1 hPa | 0 mm | - | 0 W/m² | - |
| 1777792323 | 3.89° C | 76% | 1015.9 hPa | 0 mm | - | 0 W/m² | - |
| 1777792019 | 3.89° C | 78% | 1016 hPa | 0 mm | - | 0 W/m² | - |
| 1777791718 | 3.33° C | 80% | 1016.3 hPa | 0 mm | - | 0 W/m² | - |
| 1777791415 | 3.33° C | 80% | 1016.2 hPa | 0 mm | - | 0 W/m² | - |
* Rain latest hour (hover to see other rain measurements)
** Current wind speed in m/s (hover to see current wind gust speed)